Home   Weather   Margate   Past weeks
Flag for United Kingdom

Past Weather in Margate, England, United Kingdom — October 2018

Currently: 41 °F. Quite cool. (Weather station: Manston, United Kingdom). See more current weather

October 2018 Weather in Margate — Graph

°F

High & Low Weather Summary for October 2018

 TemperatureHumidityPressure
High74 °F (Oct 13, 4:00 pm)100% (Oct 6, 11:00 am)30.63 "Hg (Oct 6, 11:00 am)
Low38 °F (Oct 31, 2:00 am)47% (Oct 1, 5:00 pm)29.21 "Hg (Oct 30, 7:00 am)
Average55 °F83%30.06 "Hg
* Reported Oct 1 12:00 am — Oct 31 11:00 pm, Margate. Weather by CustomWeather, © 2022

Note: Actual official high and low records may vary slightly from our data, if they occured in-between our weather recording intervals... More about our weather records

Margate Weather History for October 1, 2018

Scroll right to see more
 ConditionsComfort  
Time TempWeatherWind HumidityBarometerVisibility
12:00 am
Mon, Oct 1
52 °FCool.17 mph69%30.11 "Hg22 mi
1:00 am50 °FCool.18 mph73%30.12 "Hg19 mi
2:00 am50 °FCool.21 mph77%30.13 "Hg14 mi
3:00 am49 °FCool.20 mph79%30.14 "Hg15 mi
4:00 am48 °FCool.20 mph82%30.15 "Hg12 mi
5:00 am49 °FCool.20 mph83%30.15 "Hg12 mi
6:00 am48 °FCool.20 mph85%30.18 "Hg14 mi
7:00 am48 °FCool.17 mph86%30.20 "Hg15 mi
8:00 am48 °FCool.17 mph86%30.23 "Hg15 mi
9:00 am49 °FCool.20 mph83%30.25 "Hg14 mi
10:00 am51 °FCool.20 mph79%30.28 "Hg13 mi
11:00 am51 °FCool.18 mph76%30.30 "Hg22 mi
12:00 pm52 °FCool.18 mph67%30.31 "Hg16 mi
1:00 pm54 °FCool.16 mph57%30.31 "Hg14 mi
3:00 pm53 °FCool.14 mph51%30.31 "Hg25 mi
4:00 pm54 °FCool.15 mph49%30.30 "Hg12 mi
5:00 pm55 °FCool.13 mph47%30.29 "Hg19 mi
6:00 pm54 °FCool.10 mph49%30.29 "Hg25 mi
7:00 pm53 °FCool.8 mph53%30.29 "Hg31 mi
8:00 pm53 °FCool.7 mph56%30.29 "Hg28 mi
9:00 pm51 °FCool.7 mph66%30.28 "Hg22 mi
10:00 pm49 °FCool.8 mph70%30.27 "Hg25 mi
11:00 pm49 °FLight rain. Overcast.7 mph73%30.25 "Hg13 mi
Weather by CustomWeather, © 2022

See weather overview